Time,TemperatureF,DewpointF,PressureIn,WindDirection,WindDirectionDegrees,WindSpeedMPH,WindSpeedGustMPH,Humidity,HourlyPrecipIn,Conditions,Clouds,dailyrainin,SolarRadiationWatts/m^2,SoftwareType,DateUTC
2013-02-21 00:04:00,38.8,33.2,30.99,WSW,257,0.0,0.0,80,0.00,,,0.00,0,Wunderground v.1.15,2013-02-21 08:04:00,
2013-02-21 00:10:00,38.7,33.1,30.99,WSW,256,0.0,0.0,80,0.00,,,0.00,0,Wunderground v.1.15,2013-02-21 08:10:00,
2013-02-21 00:16:00,38.6,33.3,30.99,WSW,256,0.0,0.0,81,0.00,,,0.00,0,Wunderground v.1.15,2013-02-21 08:16:00,
2013-02-21 00:22:00,38.5,33.2,30.99,WSW,257,0.0,0.0,81,0.00,,,0.00,0,Wunderground v.1.15,2013-02-21 08:22:00,
2013-02-21 00:28:00,38.4,33.1,31.00,WSW,257,0.0,0.0,81,0.00,,,0.00,0,Wunderground v.1.15,2013-02-21 08:28:00,
2013-02-21 00:34:00,38.4,33.4,31.00,WSW,257,0.0,0.0,82,0.00,,,0.00,0,Wunderground v.1.15,2013-02-21 08:34:00,
2013-02-21 00:40:00,38.6,33.6,31.00,WSW,256,0.0,0.0,82,0.00,,,0.00,0,Wunderground v.1.15,2013-02-21 08:40:00,
2013-02-21 00:46:00,38.4,33.4,31.00,WSW,257,0.0,0.0,82,0.00,,,0.00,0,Wunderground v.1.15,2013-02-21 08:46:00,
2013-02-21 00:52:00,38.3,33.3,30.99,WSW,257,0.0,0.0,82,0.00,,,0.00,0,Wunderground v.1.15,2013-02-21 08:52:00,
2013-02-21 00:58:00,38.3,33.3,30.99,WSW,257,0.0,0.0,82,0.00,,,0.00,0,Wunderground v.1.15,2013-02-21 08:58:00,
2013-02-21 01:04:00,38.2,33.2,31.00,WSW,256,0.0,0.0,82,0.00,,,0.00,0,Wunderground v.1.15,2013-02-21 09:04:00,
2013-02-21 01:10:00,38.1,33.1,31.00,WSW,257,0.0,0.0,82,0.00,,,0.00,0,Wunderground v.1.15,2013-02-21 09:10:00,
2013-02-21 01:16:00,38.0,33.0,31.00,WSW,257,0.0,0.0,82,0.00,,,0.00,0,Wunderground v.1.15,2013-02-21 09:16:00,
2013-02-21 01:22:00,37.8,32.8,31.00,WSW,257,0.0,0.0,82,0.00,,,0.00,0,Wunderground v.1.15,2013-02-21 09:22:00,
2013-02-21 01:28:00,37.7,32.7,31.00,WSW,256,0.0,0.0,82,0.00,,,0.00,0,Wunderground v.1.15,2013-02-21 09:28:00,
2013-02-21 01:34:00,37.5,32.5,31.00,WSW,256,0.0,0.0,82,0.00,,,0.00,0,Wunderground v.1.15,2013-02-21 09:34:00,
2013-02-21 01:40:00,37.2,32.5,31.00,WSW,256,0.0,0.0,83,0.00,,,0.00,0,Wunderground v.1.15,2013-02-21 09:40:00,
2013-02-21 01:46:00,37.1,32.1,31.01,WSW,257,0.0,0.0,82,0.00,,,0.00,0,Wunderground v.1.15,2013-02-21 09:46:00,
2013-02-21 01:52:00,37.0,32.3,31.00,WSW,257,0.0,0.0,83,0.00,,,0.00,0,Wunderground v.1.15,2013-02-21 09:52:00,
2013-02-21 01:58:00,37.1,32.4,31.00,WSW,257,0.0,0.0,83,0.00,,,0.00,0,Wunderground v.1.15,2013-02-21 09:58:00,
2013-02-21 02:04:00,37.4,33.0,31.00,WSW,257,0.0,0.0,84,0.00,,,0.00,0,Wunderground v.1.15,2013-02-21 10:04:00,
2013-02-21 02:10:00,38.0,33.6,31.00,WSW,257,0.0,0.0,84,0.00,,,0.00,0,Wunderground v.1.15,2013-02-21 10:10:00,
2013-02-21 02:16:00,38.2,33.8,31.00,WSW,256,0.0,0.0,84,0.00,,,0.00,0,Wunderground v.1.15,2013-02-21 10:16:00,
2013-02-21 02:22:00,38.4,34.3,30.99,WSW,256,0.0,0.0,85,0.00,,,0.00,0,Wunderground v.1.15,2013-02-21 10:22:00,
2013-02-21 02:28:00,38.8,34.7,31.00,West,263,0.0,0.0,85,0.00,,,0.00,0,Wunderground v.1.15,2013-02-21 10:28:00,
2013-02-21 02:34:00,39.5,35.4,30.99,West,265,0.0,4.0,85,0.00,,,0.00,0,Wunderground v.1.15,2013-02-21 10:34:00,
2013-02-21 02:40:00,39.9,35.8,30.99,West,265,0.0,0.0,85,0.00,,,0.00,0,Wunderground v.1.15,2013-02-21 10:40:00,
2013-02-21 02:46:00,40.0,35.9,30.98,West,265,0.0,0.0,85,0.00,,,0.00,0,Wunderground v.1.15,2013-02-21 10:46:00,
2013-02-21 02:52:00,40.0,35.9,30.98,West,265,0.0,0.0,85,0.00,,,0.00,0,Wunderground v.1.15,2013-02-21 10:52:00,
2013-02-21 02:58:00,40.1,36.0,30.98,West,265,0.0,0.0,85,0.00,,,0.00,0,Wunderground v.1.15,2013-02-21 10:58:00,
2013-02-21 03:04:00,40.1,35.7,30.98,West,265,0.0,0.0,84,0.00,,,0.00,0,Wunderground v.1.15,2013-02-21 11:04:00,
2013-02-21 03:10:00,40.1,35.7,30.98,West,265,0.0,0.0,84,0.00,,,0.00,0,Wunderground v.1.15,2013-02-21 11:10:00,
2013-02-21 03:16:00,40.2,36.1,30.98,West,265,0.0,0.0,85,0.00,,,0.00,0,Wunderground v.1.15,2013-02-21 11:16:00,
2013-02-21 03:22:00,40.6,36.4,30.99,West,270,1.0,3.0,85,0.00,,,0.00,0,Wunderground v.1.15,2013-02-21 11:22:00,
2013-02-21 03:28:00,41.1,36.9,30.99,West,273,1.0,3.0,85,0.00,,,0.00,0,Wunderground v.1.15,2013-02-21 11:28:00,
2013-02-21 03:34:00,41.6,37.4,30.99,West,274,1.0,2.0,85,0.00,,,0.00,0,Wunderground v.1.15,2013-02-21 11:34:00,
2013-02-21 03:40:00,42.1,37.6,30.99,West,273,1.0,1.0,84,0.00,,,0.00,0,Wunderground v.1.15,2013-02-21 11:40:00,
2013-02-21 03:46:00,42.4,37.9,30.98,WNW,298,1.0,2.0,84,0.00,,,0.00,0,Wunderground v.1.15,2013-02-21 11:46:00,
2013-02-21 03:52:00,42.6,37.8,30.98,West,273,1.0,1.0,83,0.00,,,0.00,0,Wunderground v.1.15,2013-02-21 11:52:00,
2013-02-21 03:58:00,42.8,37.7,30.98,West,280,1.0,1.0,82,0.00,,,0.00,0,Wunderground v.1.15,2013-02-21 11:58:00,
2013-02-21 04:04:00,42.9,37.8,30.98,West,277,1.0,2.0,82,0.00,,,0.00,0,Wunderground v.1.15,2013-02-21 12:04:00,
2013-02-21 04:10:00,42.9,37.5,30.98,West,276,1.0,1.0,81,0.00,,,0.00,0,Wunderground v.1.15,2013-02-21 12:10:00,
2013-02-21 04:16:00,42.9,37.5,30.98,West,276,0.0,1.0,81,0.00,,,0.00,0,Wunderground v.1.15,2013-02-21 12:16:00,
2013-02-21 04:22:00,42.9,37.2,30.98,West,277,0.0,0.0,80,0.00,,,0.00,0,Wunderground v.1.15,2013-02-21 12:22:00,
2013-02-21 04:28:00,43.0,37.3,30.98,West,277,0.0,3.0,80,0.00,,,0.00,0,Wunderground v.1.15,2013-02-21 12:28:00,
2013-02-21 04:34:00,42.9,36.8,30.98,West,276,0.0,0.0,79,0.00,,,0.00,0,Wunderground v.1.15,2013-02-21 12:34:00,
2013-02-21 04:40:00,42.9,36.8,30.99,West,277,0.0,0.0,79,0.00,,,0.00,0,Wunderground v.1.15,2013-02-21 12:40:00,
2013-02-21 04:46:00,42.9,36.8,30.99,West,277,1.0,1.0,79,0.00,,,0.00,0,Wunderground v.1.15,2013-02-21 12:46:00,
2013-02-21 04:52:00,43.0,36.9,30.99,West,277,1.0,1.0,79,0.00,,,0.00,0,Wunderground v.1.15,2013-02-21 12:52:00,
2013-02-21 04:58:00,43.0,36.9,30.99,West,277,0.0,1.0,79,0.00,,,0.00,0,Wunderground v.1.15,2013-02-21 12:58:00,
2013-02-21 05:04:00,42.9,36.8,30.99,West,278,1.0,1.0,79,0.00,,,0.00,0,Wunderground v.1.15,2013-02-21 13:04:00,
2013-02-21 05:10:00,42.9,36.8,31.00,West,278,0.0,0.0,79,0.00,,,0.00,0,Wunderground v.1.15,2013-02-21 13:10:00,
2013-02-21 05:16:00,42.9,36.8,30.99,West,279,1.0,1.0,79,0.00,,,0.00,0,Wunderground v.1.15,2013-02-21 13:16:00,
2013-02-21 05:22:00,42.9,36.8,30.99,West,277,0.0,1.0,79,0.00,,,0.00,0,Wunderground v.1.15,2013-02-21 13:22:00,
2013-02-21 05:28:00,42.9,37.2,30.99,West,280,0.0,1.0,80,0.00,,,0.00,0,Wunderground v.1.15,2013-02-21 13:28:00,
2013-02-21 05:34:00,42.9,37.2,31.00,West,280,0.0,1.0,80,0.00,,,0.00,0,Wunderground v.1.15,2013-02-21 13:34:00,
2013-02-21 05:40:00,43.0,37.3,31.00,West,280,0.0,0.0,80,0.00,,,0.00,0,Wunderground v.1.15,2013-02-21 13:40:00,
2013-02-21 05:46:00,43.0,37.3,31.00,West,280,0.0,0.0,80,0.00,,,0.00,0,Wunderground v.1.15,2013-02-21 13:46:00,
2013-02-21 05:52:00,42.9,37.2,31.00,West,280,0.0,0.0,80,0.00,,,0.00,0,Wunderground v.1.15,2013-02-21 13:52:00,
2013-02-21 05:58:00,42.5,36.4,31.01,West,280,0.0,0.0,79,0.00,,,0.00,0,Wunderground v.1.15,2013-02-21 13:58:00,
2013-02-21 06:04:00,42.3,36.3,31.01,West,280,0.0,0.0,79,0.00,,,0.00,0,Wunderground v.1.15,2013-02-21 14:04:00,
2013-02-21 06:10:00,41.9,35.9,31.01,West,280,0.0,0.0,79,0.00,,,0.00,0,Wunderground v.1.15,2013-02-21 14:10:00,
2013-02-21 06:16:00,41.4,35.4,31.01,West,280,0.0,0.0,79,0.00,,,0.00,0,Wunderground v.1.15,2013-02-21 14:16:00,
2013-02-21 06:22:00,40.9,34.9,31.00,West,280,0.0,0.0,79,0.00,,,0.00,0,Wunderground v.1.15,2013-02-21 14:22:00,
2013-02-21 06:28:00,40.6,34.9,31.00,West,280,0.0,1.0,80,0.00,,,0.00,0,Wunderground v.1.15,2013-02-21 14:28:00,
2013-02-21 06:34:00,40.2,34.5,31.01,West,280,0.0,0.0,80,0.00,,,0.00,0,Wunderground v.1.15,2013-02-21 14:34:00,
2013-02-21 06:40:00,40.0,34.3,31.01,West,280,0.0,0.0,80,0.00,,,0.00,0,Wunderground v.1.15,2013-02-21 14:40:00,
2013-02-21 06:46:00,39.7,34.0,31.01,West,280,0.0,0.0,80,0.00,,,0.00,0,Wunderground v.1.15,2013-02-21 14:46:00,
2013-02-21 06:52:00,39.4,33.7,31.01,West,280,0.0,0.0,80,0.00,,,0.00,5,Wunderground v.1.15,2013-02-21 14:52:00,
2013-02-21 06:58:00,39.1,33.5,31.01,West,280,0.0,0.0,80,0.00,,,0.00,9,Wunderground v.1.15,2013-02-21 14:58:00,
2013-02-21 07:04:00,38.9,33.6,31.01,West,280,0.0,0.0,81,0.00,,,0.00,14,Wunderground v.1.15,2013-02-21 15:04:00,
2013-02-21 07:10:00,38.7,33.4,31.01,West,280,0.0,0.0,81,0.00,,,0.00,23,Wunderground v.1.15,2013-02-21 15:10:00,
2013-02-21 07:16:00,38.7,33.4,31.02,West,280,0.0,0.0,81,0.00,,,0.00,32,Wunderground v.1.15,2013-02-21 15:16:00,
2013-02-21 07:22:00,38.8,33.8,31.02,West,280,0.0,0.0,82,0.00,,,0.00,47,Wunderground v.1.15,2013-02-21 15:22:00,
2013-02-21 07:28:00,39.1,34.4,31.02,West,280,0.0,1.0,83,0.00,,,0.00,65,Wunderground v.1.15,2013-02-21 15:28:00,
2013-02-21 07:34:00,39.7,35.0,31.02,West,280,0.0,0.0,83,0.00,,,0.00,83,Wunderground v.1.15,2013-02-21 15:34:00,
2013-02-21 07:40:00,40.4,35.9,31.02,West,280,0.0,0.0,84,0.00,,,0.00,104,Wunderground v.1.15,2013-02-21 15:40:00,
2013-02-21 07:46:00,41.1,36.9,31.02,West,280,0.0,0.0,85,0.00,,,0.00,125,Wunderground v.1.15,2013-02-21 15:46:00,
2013-02-21 07:52:00,41.7,37.5,31.02,West,280,0.0,0.0,85,0.00,,,0.00,142,Wunderground v.1.15,2013-02-21 15:52:00,
2013-02-21 07:58:00,42.4,38.2,31.03,West,280,0.0,0.0,85,0.00,,,0.00,169,Wunderground v.1.15,2013-02-21 15:58:00,
2013-02-21 08:04:00,43.3,40.3,31.04,West,281,0.0,0.0,89,0.00,,,0.00,193,Wunderground v.1.15,2013-02-21 16:04:00,
2013-02-21 08:10:00,43.9,39.7,31.03,West,280,0.0,1.0,85,0.00,,,0.00,218,Wunderground v.1.15,2013-02-21 16:10:00,
2013-02-21 08:16:00,44.6,40.1,31.04,WNW,285,0.0,1.0,84,0.00,,,0.00,243,Wunderground v.1.15,2013-02-21 16:16:00,
2013-02-21 08:22:00,45.3,40.4,31.04,NW,309,1.0,1.0,83,0.00,,,0.00,258,Wunderground v.1.15,2013-02-21 16:22:00,
2013-02-21 08:28:00,45.9,40.4,31.04,WNW,294,2.0,6.0,81,0.00,,,0.00,283,Wunderground v.1.15,2013-02-21 16:28:00,
2013-02-21 08:34:00,46.5,40.3,31.05,WNW,302,2.0,3.0,79,0.00,,,0.00,304,Wunderground v.1.15,2013-02-21 16:34:00,
2013-02-21 08:40:00,47.0,40.2,31.05,North,355,1.0,1.0,77,0.00,,,0.00,318,Wunderground v.1.15,2013-02-21 16:40:00,
2013-02-21 08:46:00,47.5,40.3,31.05,NNW,340,1.0,3.0,76,0.00,,,0.00,341,Wunderground v.1.15,2013-02-21 16:46:00,
2013-02-21 08:52:00,48.0,40.1,31.05,NNW,335,1.0,4.0,74,0.00,,,0.00,360,Wunderground v.1.15,2013-02-21 16:52:00,
2013-02-21 08:58:00,48.3,39.7,31.05,North,10,2.0,6.0,72,0.00,,,0.00,381,Wunderground v.1.15,2013-02-21 16:58:00,
2013-02-21 09:04:00,48.6,39.6,31.06,NNW,344,3.0,5.0,71,0.00,,,0.00,399,Wunderground v.1.15,2013-02-21 17:04:00,
2013-02-21 09:10:00,48.8,39.1,31.06,NNW,348,3.0,3.0,69,0.00,,,0.00,415,Wunderground v.1.15,2013-02-21 17:10:00,
2013-02-21 09:16:00,49.2,39.5,31.06,NNE,18,2.0,3.0,69,0.00,,,0.00,434,Wunderground v.1.15,2013-02-21 17:16:00,
2013-02-21 09:22:00,49.6,39.8,31.06,North,9,1.0,1.0,69,0.00,,,0.00,452,Wunderground v.1.15,2013-02-21 17:22:00,
2013-02-21 09:28:00,50.0,39.8,31.06,North,5,1.0,4.0,68,0.00,,,0.00,468,Wunderground v.1.15,2013-02-21 17:28:00,
2013-02-21 09:34:00,50.3,39.4,31.06,NNW,342,2.0,4.0,66,0.00,,,0.00,485,Wunderground v.1.15,2013-02-21 17:34:00,
2013-02-21 09:40:00,50.5,39.2,31.06,NNW,341,2.0,3.0,65,0.00,,,0.00,503,Wunderground v.1.15,2013-02-21 17:40:00,
2013-02-21 09:46:00,50.8,39.5,31.07,WNW,292,2.0,3.0,65,0.00,,,0.00,519,Wunderground v.1.15,2013-02-21 17:46:00,
2013-02-21 09:52:00,51.1,39.3,31.07,NE,34,2.0,3.0,64,0.00,,,0.00,534,Wunderground v.1.15,2013-02-21 17:52:00,
2013-02-21 09:58:00,51.5,39.3,31.07,North,5,2.0,3.0,63,0.00,,,0.00,548,Wunderground v.1.15,2013-02-21 17:58:00,
2013-02-21 10:04:00,51.6,39.4,31.07,North,360,3.0,6.0,63,0.00,,,0.00,561,Wunderground v.1.15,2013-02-21 18:04:00,
2013-02-21 10:10:00,51.9,38.9,31.07,North,355,2.0,2.0,61,0.00,,,0.00,578,Wunderground v.1.15,2013-02-21 18:10:00,
2013-02-21 10:16:00,52.2,37.9,31.07,NNW,348,2.0,4.0,58,0.00,,,0.00,589,Wunderground v.1.15,2013-02-21 18:16:00,
2013-02-21 10:22:00,52.2,37.4,31.08,North,360,3.0,3.0,57,0.00,,,0.00,605,Wunderground v.1.15,2013-02-21 18:22:00,
2013-02-21 10:28:00,52.4,36.7,31.08,North,355,2.0,3.0,55,0.00,,,0.00,610,Wunderground v.1.15,2013-02-21 18:28:00,
2013-02-21 10:34:00,52.6,37.3,31.08,North,350,2.0,7.0,56,0.00,,,0.00,621,Wunderground v.1.15,2013-02-21 18:34:00,
2013-02-21 10:40:00,53.0,37.3,31.08,North,355,2.0,2.0,55,0.00,,,0.00,629,Wunderground v.1.15,2013-02-21 18:40:00,
2013-02-21 10:46:00,53.3,37.1,31.08,NE,46,2.0,3.0,54,0.00,,,0.00,645,Wunderground v.1.15,2013-02-21 18:46:00,
2013-02-21 10:52:00,53.6,36.4,31.08,NNW,337,3.0,3.0,52,0.00,,,0.00,647,Wunderground v.1.15,2013-02-21 18:52:00,
2013-02-21 10:58:00,53.8,35.6,31.08,NW,325,4.0,9.0,50,0.00,,,0.00,659,Wunderground v.1.15,2013-02-21 18:58:00,
2013-02-21 11:04:00,53.7,35.5,31.08,NNW,338,5.0,7.0,50,0.00,,,0.00,670,Wunderground v.1.15,2013-02-21 19:04:00,
2013-02-21 11:10:00,53.6,34.9,31.08,North,5,6.0,6.0,49,0.00,,,0.00,680,Wunderground v.1.15,2013-02-21 19:10:00,
2013-02-21 11:16:00,53.5,34.3,31.08,WSW,251,5.0,11.0,48,0.00,,,0.00,689,Wunderground v.1.15,2013-02-21 19:16:00,
2013-02-21 11:22:00,54.0,35.3,31.08,ENE,65,4.0,4.0,49,0.00,,,0.00,696,Wunderground v.1.15,2013-02-21 19:22:00,
2013-02-21 11:28:00,54.4,35.1,31.07,NNW,344,2.0,6.0,48,0.00,,,0.00,700,Wunderground v.1.15,2013-02-21 19:28:00,
2013-02-21 11:34:00,54.8,34.9,31.08,NE,36,4.0,6.0,47,0.00,,,0.00,705,Wunderground v.1.15,2013-02-21 19:34:00,
2013-02-21 11:40:00,55.0,35.1,31.07,North,355,4.0,9.0,47,0.00,,,0.00,710,Wunderground v.1.15,2013-02-21 19:40:00,
2013-02-21 11:46:00,55.3,35.4,31.07,NNW,340,3.0,9.0,47,0.00,,,0.00,715,Wunderground v.1.15,2013-02-21 19:46:00,
2013-02-21 11:52:00,56.0,35.5,31.07,ENE,61,2.0,5.0,46,0.00,,,0.00,717,Wunderground v.1.15,2013-02-21 19:52:00,
2013-02-21 11:58:00,56.4,35.9,31.07,NNW,333,2.0,5.0,46,0.00,,,0.00,722,Wunderground v.1.15,2013-02-21 19:58:00,
2013-02-21 12:04:00,56.6,35.5,31.07,NW,325,3.0,3.0,45,0.00,,,0.00,724,Wunderground v.1.15,2013-02-21 20:04:00,
2013-02-21 12:10:00,56.7,35.6,31.07,NNE,15,2.0,2.0,45,0.00,,,0.00,728,Wunderground v.1.15,2013-02-21 20:10:00,
2013-02-21 12:16:00,56.8,35.1,31.06,NNW,336,3.0,5.0,44,0.00,,,0.00,728,Wunderground v.1.15,2013-02-21 20:16:00,
2013-02-21 12:22:00,56.3,35.2,31.06,NW,315,4.0,4.0,45,0.00,,,0.00,729,Wunderground v.1.15,2013-02-21 20:22:00,
2013-02-21 12:28:00,56.5,35.4,31.06,NNW,329,3.0,5.0,45,0.00,,,0.00,728,Wunderground v.1.15,2013-02-21 20:28:00,
2013-02-21 12:34:00,56.7,35.0,31.06,North,355,4.0,5.0,44,0.00,,,0.00,728,Wunderground v.1.15,2013-02-21 20:34:00,
2013-02-21 12:40:00,57.2,35.5,31.05,NNW,336,3.0,3.0,44,0.00,,,0.00,726,Wunderground v.1.15,2013-02-21 20:40:00,
2013-02-21 12:46:00,57.0,35.3,31.06,North,355,4.0,11.0,44,0.00,,,0.00,726,Wunderground v.1.15,2013-02-21 20:46:00,
2013-02-21 12:52:00,56.9,35.8,31.05,NNW,345,5.0,5.0,45,0.00,,,0.00,717,Wunderground v.1.15,2013-02-21 20:52:00,
2013-02-21 12:58:00,57.1,35.4,31.05,NNW,346,4.0,5.0,44,0.00,,,0.00,722,Wunderground v.1.15,2013-02-21 20:58:00,
2013-02-21 13:04:00,57.3,35.6,31.05,NNW,331,3.0,5.0,44,0.00,,,0.00,717,Wunderground v.1.15,2013-02-21 21:04:00,
2013-02-21 13:10:00,57.7,35.3,31.05,North,349,3.0,3.0,43,0.00,,,0.00,710,Wunderground v.1.15,2013-02-21 21:10:00,
2013-02-21 13:16:00,58.2,35.2,31.04,NNW,339,3.0,10.0,42,0.00,,,0.00,707,Wunderground v.1.15,2013-02-21 21:16:00,
2013-02-21 13:22:00,58.1,35.1,31.04,West,268,4.0,5.0,42,0.00,,,0.00,700,Wunderground v.1.15,2013-02-21 21:22:00,
2013-02-21 13:28:00,58.1,33.9,31.04,ENE,72,5.0,8.0,40,0.00,,,0.00,694,Wunderground v.1.15,2013-02-21 21:28:00,
2013-02-21 13:34:00,58.4,34.8,31.04,North,355,4.0,5.0,41,0.00,,,0.00,687,Wunderground v.1.15,2013-02-21 21:34:00,
2013-02-21 13:40:00,58.5,34.9,31.03,WSW,253,3.0,4.0,41,0.00,,,0.00,677,Wunderground v.1.15,2013-02-21 21:40:00,
2013-02-21 13:46:00,58.8,33.9,31.03,NNW,340,4.0,6.0,39,0.00,,,0.00,671,Wunderground v.1.15,2013-02-21 21:46:00,
2013-02-21 13:52:00,59.2,34.2,31.03,WNW,293,3.0,4.0,39,0.00,,,0.00,666,Wunderground v.1.15,2013-02-21 21:52:00,
2013-02-21 13:58:00,60.2,34.5,31.03,NW,324,2.0,4.0,38,0.00,,,0.00,652,Wunderground v.1.15,2013-02-21 21:58:00,
2013-02-21 14:04:00,60.4,34.0,31.03,South,187,2.0,4.0,37,0.00,,,0.00,647,Wunderground v.1.15,2013-02-21 22:04:00,
2013-02-21 14:10:00,59.4,33.1,31.03,NW,323,6.0,6.0,37,0.00,,,0.00,628,Wunderground v.1.15,2013-02-21 22:10:00,
2013-02-21 14:16:00,59.1,33.5,31.03,NW,306,4.0,6.0,38,0.00,,,0.00,621,Wunderground v.1.15,2013-02-21 22:16:00,
2013-02-21 14:22:00,59.6,33.9,31.03,NNE,13,3.0,4.0,38,0.00,,,0.00,610,Wunderground v.1.15,2013-02-21 22:22:00,
2013-02-21 14:28:00,59.7,34.0,31.03,NNE,27,3.0,4.0,38,0.00,,,0.00,596,Wunderground v.1.15,2013-02-21 22:28:00,
2013-02-21 14:34:00,59.8,33.5,31.03,NNW,342,3.0,4.0,37,0.00,,,0.00,584,Wunderground v.1.15,2013-02-21 22:34:00,
2013-02-21 14:40:00,59.6,33.3,31.03,North,350,4.0,4.0,37,0.00,,,0.00,571,Wunderground v.1.15,2013-02-21 22:40:00,
2013-02-21 14:46:00,59.6,33.3,31.03,NW,315,5.0,5.0,37,0.00,,,0.00,555,Wunderground v.1.15,2013-02-21 22:46:00,
2013-02-21 14:52:00,60.0,33.6,31.03,North,360,2.0,5.0,37,0.00,,,0.00,541,Wunderground v.1.15,2013-02-21 22:52:00,
2013-02-21 14:58:00,60.1,33.7,31.02,NW,323,3.0,6.0,37,0.00,,,0.00,526,Wunderground v.1.15,2013-02-21 22:58:00,
2013-02-21 15:04:00,59.9,32.9,31.02,WNW,284,4.0,5.0,36,0.00,,,0.00,508,Wunderground v.1.15,2013-02-21 23:04:00,
2013-02-21 15:10:00,60.2,33.8,31.02,WNW,282,3.0,5.0,37,0.00,,,0.00,496,Wunderground v.1.15,2013-02-21 23:10:00,
2013-02-21 15:16:00,60.2,33.1,31.02,NNW,346,3.0,10.0,36,0.00,,,0.00,478,Wunderground v.1.15,2013-02-21 23:16:00,
2013-02-21 15:22:00,60.2,33.1,31.02,NNW,342,4.0,7.0,36,0.00,,,0.00,464,Wunderground v.1.15,2013-02-21 23:22:00,
2013-02-21 15:28:00,60.0,33.6,31.02,NNW,342,5.0,7.0,37,0.00,,,0.00,443,Wunderground v.1.15,2013-02-21 23:28:00,
2013-02-21 15:34:00,59.5,33.9,31.02,NNW,329,6.0,8.0,38,0.00,,,0.00,399,Wunderground v.1.15,2013-02-21 23:34:00,
2013-02-21 15:40:00,59.2,33.6,31.02,NNW,341,6.0,6.0,38,0.00,,,0.00,415,Wunderground v.1.15,2013-02-21 23:40:00,
2013-02-21 15:46:00,59.5,33.9,31.02,NNW,333,4.0,6.0,38,0.00,,,0.00,390,Wunderground v.1.15,2013-02-21 23:46:00,
2013-02-21 15:52:00,59.7,33.4,31.02,North,355,5.0,10.0,37,0.00,,,0.00,374,Wunderground v.1.15,2013-02-21 23:52:00,
2013-02-21 15:58:00,59.5,33.2,31.02,North,360,5.0,10.0,37,0.00,,,0.00,346,Wunderground v.1.15,2013-02-21 23:58:00,
2013-02-21 16:04:00,59.4,32.4,31.02,NNW,342,5.0,7.0,36,0.00,,,0.00,334,Wunderground v.1.15,2013-02-22 00:04:00,
2013-02-21 16:10:00,59.4,31.7,31.01,NNW,327,4.0,4.0,35,0.00,,,0.00,313,Wunderground v.1.15,2013-02-22 00:10:00,
2013-02-21 16:16:00,59.6,31.9,31.01,NNE,32,3.0,4.0,35,0.00,,,0.00,295,Wunderground v.1.15,2013-02-22 00:16:00,
2013-02-21 16:22:00,59.6,31.2,31.01,NNW,333,5.0,8.0,34,0.00,,,0.00,267,Wunderground v.1.15,2013-02-22 00:22:00,
2013-02-21 16:28:00,59.6,32.6,31.01,NNW,331,4.0,8.0,36,0.00,,,0.00,236,Wunderground v.1.15,2013-02-22 00:28:00,
2013-02-21 16:34:00,59.6,33.3,31.01,NNW,342,4.0,6.0,37,0.00,,,0.00,214,Wunderground v.1.15,2013-02-22 00:34:00,
2013-02-21 16:40:00,59.3,33.7,31.02,West,267,4.0,6.0,38,0.00,,,0.00,183,Wunderground v.1.15,2013-02-22 00:40:00,
2013-02-21 16:46:00,59.1,34.1,31.02,NNW,335,3.0,7.0,39,0.00,,,0.00,153,Wunderground v.1.15,2013-02-22 00:46:00,
2013-02-21 16:52:00,59.0,34.1,31.02,West,277,4.0,7.0,39,0.00,,,0.00,128,Wunderground v.1.15,2013-02-22 00:52:00,
2013-02-21 16:58:00,58.5,34.2,31.02,NW,309,3.0,7.0,40,0.00,,,0.00,116,Wunderground v.1.15,2013-02-22 00:58:00,
2013-02-21 17:04:00,58.5,34.2,31.03,NNW,329,3.0,6.0,40,0.00,,,0.00,86,Wunderground v.1.15,2013-02-22 01:04:00,
2013-02-21 17:10:00,58.1,33.9,31.03,NNW,340,4.0,4.0,40,0.00,,,0.00,86,Wunderground v.1.15,2013-02-22 01:10:00,
2013-02-21 17:16:00,57.8,33.6,31.02,NNW,340,3.0,7.0,40,0.00,,,0.00,63,Wunderground v.1.15,2013-02-22 01:16:00,
2013-02-21 17:22:00,57.3,33.8,31.03,NNW,345,4.0,6.0,41,0.00,,,0.00,40,Wunderground v.1.15,2013-02-22 01:22:00,
2013-02-21 17:28:00,56.9,33.4,31.03,NNW,338,4.0,6.0,41,0.00,,,0.00,26,Wunderground v.1.15,2013-02-22 01:28:00,
2013-02-21 17:34:00,56.6,34.3,31.04,WNW,303,2.0,4.0,43,0.00,,,0.00,16,Wunderground v.1.15,2013-02-22 01:34:00,
2013-02-21 17:40:00,56.3,34.1,31.04,NNW,333,2.0,2.0,43,0.00,,,0.00,12,Wunderground v.1.15,2013-02-22 01:40:00,
2013-02-21 17:46:00,56.0,34.4,31.04,NW,325,1.0,2.0,44,0.00,,,0.00,9,Wunderground v.1.15,2013-02-22 01:46:00,
2013-02-21 17:52:00,55.6,34.6,31.04,NW,326,1.0,2.0,45,0.00,,,0.00,5,Wunderground v.1.15,2013-02-22 01:52:00,
2013-02-21 17:58:00,55.2,34.8,31.04,WNW,290,1.0,2.0,46,0.00,,,0.00,0,Wunderground v.1.15,2013-02-22 01:58:00,
2013-02-21 18:04:00,54.8,34.9,31.04,WNW,289,0.0,0.0,47,0.00,,,0.00,0,Wunderground v.1.15,2013-02-22 02:04:00,
2013-02-21 18:10:00,54.4,35.1,31.04,WNW,287,0.0,2.0,48,0.00,,,0.00,0,Wunderground v.1.15,2013-02-22 02:10:00,
2013-02-21 18:16:00,54.1,35.3,31.03,WNW,287,0.0,2.0,49,0.00,,,0.00,0,Wunderground v.1.15,2013-02-22 02:16:00,
2013-02-21 18:22:00,53.7,35.0,31.04,WNW,287,0.0,0.0,49,0.00,,,0.00,0,Wunderground v.1.15,2013-02-22 02:22:00,
2013-02-21 18:28:00,53.3,35.1,31.04,WNW,287,0.0,0.0,50,0.00,,,0.00,0,Wunderground v.1.15,2013-02-22 02:28:00,
2013-02-21 18:34:00,52.9,34.8,31.04,WNW,287,0.0,0.0,50,0.00,,,0.00,0,Wunderground v.1.15,2013-02-22 02:34:00,
2013-02-21 18:40:00,52.6,35.0,31.04,WNW,287,0.0,0.0,51,0.00,,,0.00,0,Wunderground v.1.15,2013-02-22 02:40:00,
2013-02-21 18:46:00,52.2,34.6,31.04,WNW,287,0.0,0.0,51,0.00,,,0.00,0,Wunderground v.1.15,2013-02-22 02:46:00,
2013-02-21 18:52:00,51.8,34.7,31.04,WNW,287,0.0,0.0,52,0.00,,,0.00,0,Wunderground v.1.15,2013-02-22 02:52:00,
2013-02-21 18:58:00,51.3,34.7,31.05,WNW,288,1.0,3.0,53,0.00,,,0.00,0,Wunderground v.1.15,2013-02-22 02:58:00,
2013-02-21 19:04:00,50.9,34.8,31.05,NW,306,2.0,2.0,54,0.00,,,0.00,0,Wunderground v.1.15,2013-02-22 03:04:00,
2013-02-21 19:10:00,50.5,34.5,31.05,NW,305,1.0,1.0,54,0.00,,,0.00,0,Wunderground v.1.15,2013-02-22 03:10:00,
2013-02-21 19:16:00,50.2,34.6,31.06,NW,304,0.0,1.0,55,0.00,,,0.00,0,Wunderground v.1.15,2013-02-22 03:16:00,
2013-02-21 19:22:00,49.9,34.4,31.06,NW,304,0.0,0.0,55,0.00,,,0.00,0,Wunderground v.1.15,2013-02-22 03:22:00,
2013-02-21 19:28:00,49.7,34.6,31.06,NW,305,0.0,0.0,56,0.00,,,0.00,0,Wunderground v.1.15,2013-02-22 03:28:00,
2013-02-21 19:34:00,49.4,34.3,31.06,NW,305,0.0,0.0,56,0.00,,,0.00,0,Wunderground v.1.15,2013-02-22 03:34:00,
2013-02-21 19:40:00,49.2,34.2,31.06,NW,304,0.0,0.0,56,0.00,,,0.00,0,Wunderground v.1.15,2013-02-22 03:40:00,
2013-02-21 19:46:00,48.7,34.1,31.06,NW,305,0.0,0.0,57,0.00,,,0.00,0,Wunderground v.1.15,2013-02-22 03:46:00,
2013-02-21 19:52:00,48.3,34.2,31.06,NW,304,0.0,0.0,58,0.00,,,0.00,0,Wunderground v.1.15,2013-02-22 03:52:00,
2013-02-21 19:58:00,47.9,33.8,31.06,NW,305,0.0,0.0,58,0.00,,,0.00,0,Wunderground v.1.15,2013-02-22 03:58:00,
2013-02-21 20:04:00,47.6,34.0,31.07,NW,304,0.0,0.0,59,0.00,,,0.00,0,Wunderground v.1.15,2013-02-22 04:04:00,
2013-02-21 20:10:00,47.2,33.6,31.07,NW,305,0.0,0.0,59,0.00,,,0.00,0,Wunderground v.1.15,2013-02-22 04:10:00,
2013-02-21 20:16:00,46.7,34.0,31.07,NW,304,0.0,0.0,61,0.00,,,0.00,0,Wunderground v.1.15,2013-02-22 04:16:00,
2013-02-21 20:22:00,46.4,33.7,31.07,NW,304,0.0,0.0,61,0.00,,,0.00,0,Wunderground v.1.15,2013-02-22 04:22:00,
2013-02-21 20:28:00,46.1,33.8,31.06,NW,304,0.0,0.0,62,0.00,,,0.00,0,Wunderground v.1.15,2013-02-22 04:28:00,
2013-02-21 20:34:00,45.9,34.0,31.06,NW,305,0.0,0.0,63,0.00,,,0.00,0,Wunderground v.1.15,2013-02-22 04:34:00,
2013-02-21 20:40:00,45.8,33.9,31.06,NW,304,0.0,0.0,63,0.00,,,0.00,0,Wunderground v.1.15,2013-02-22 04:40:00,
2013-02-21 20:46:00,45.6,33.7,31.06,NW,305,0.0,0.0,63,0.00,,,0.00,0,Wunderground v.1.15,2013-02-22 04:46:00,
2013-02-21 20:52:00,45.5,34.0,31.06,NW,304,0.0,0.0,64,0.00,,,0.00,0,Wunderground v.1.15,2013-02-22 04:52:00,
2013-02-21 20:58:00,45.5,34.0,31.06,NW,305,0.0,2.0,64,0.00,,,0.00,0,Wunderground v.1.15,2013-02-22 04:58:00,
2013-02-21 21:00:00,45.4,34.3,31.06,NW,305,0.0,0.0,65,0.00,,,0.00,0,Wunderground v.1.15,2013-02-22 05:00:00,
2013-02-21 21:02:00,45.4,34.3,31.07,NW,305,0.0,0.0,65,0.00,,,0.00,0,Wunderground v.1.15,2013-02-22 05:02:00,
2013-02-21 21:08:00,45.3,34.2,31.07,NW,305,0.0,0.0,65,0.00,,,0.00,0,Wunderground v.1.15,2013-02-22 05:08:00,
2013-02-21 21:14:00,45.1,34.0,31.07,NW,304,0.0,0.0,65,0.00,,,0.00,0,Wunderground v.1.15,2013-02-22 05:14:00,
2013-02-21 21:20:00,45.0,33.9,31.07,NW,305,0.0,0.0,65,0.00,,,0.00,0,Wunderground v.1.15,2013-02-22 05:20:00,
2013-02-21 21:22:00,45.0,33.9,31.08,NW,305,0.0,0.0,65,0.00,,,0.00,0,Wunderground v.1.15,2013-02-22 05:22:00,
2013-02-21 21:28:00,44.8,33.4,31.08,NW,305,0.0,0.0,64,0.00,,,0.00,0,Wunderground v.1.15,2013-02-22 05:28:00,
2013-02-21 21:34:00,44.4,33.0,31.08,NW,305,0.0,0.0,64,0.00,,,0.00,0,Wunderground v.1.15,2013-02-22 05:34:00,
2013-02-21 21:40:00,44.0,32.6,31.09,NW,305,0.0,0.0,64,0.00,,,0.00,0,Wunderground v.1.15,2013-02-22 05:40:00,
2013-02-21 21:46:00,43.5,32.5,31.09,NW,305,0.0,0.0,65,0.00,,,0.00,0,Wunderground v.1.15,2013-02-22 05:46:00,
2013-02-21 21:52:00,43.1,32.5,31.08,NW,304,0.0,0.0,66,0.00,,,0.00,0,Wunderground v.1.15,2013-02-22 05:52:00,
2013-02-21 21:58:00,42.9,32.7,31.08,NW,305,0.0,0.0,67,0.00,,,0.00,0,Wunderground v.1.15,2013-02-22 05:58:00,
2013-02-21 22:04:00,42.8,32.6,31.08,NW,304,0.0,0.0,67,0.00,,,0.00,0,Wunderground v.1.15,2013-02-22 06:04:00,
2013-02-21 22:10:00,42.7,32.5,31.09,NW,305,0.0,0.0,67,0.00,,,0.00,0,Wunderground v.1.15,2013-02-22 06:10:00,
2013-02-21 22:16:00,42.5,32.3,31.09,NW,305,0.0,0.0,67,0.00,,,0.00,0,Wunderground v.1.15,2013-02-22 06:16:00,
2013-02-21 22:22:00,42.4,32.2,31.09,NW,305,0.0,0.0,67,0.00,,,0.00,0,Wunderground v.1.15,2013-02-22 06:22:00,
2013-02-21 22:28:00,42.2,32.4,31.09,NW,305,0.0,0.0,68,0.00,,,0.00,0,Wunderground v.1.15,2013-02-22 06:28:00,
2013-02-21 22:34:00,41.9,32.1,31.09,NW,305,0.0,0.0,68,0.00,,,0.00,0,Wunderground v.1.15,2013-02-22 06:34:00,
2013-02-21 22:40:00,41.7,31.9,31.09,NW,305,0.0,0.0,68,0.00,,,0.00,0,Wunderground v.1.15,2013-02-22 06:40:00,
2013-02-21 22:46:00,41.6,31.8,31.09,NW,305,0.0,0.0,68,0.00,,,0.00,0,Wunderground v.1.15,2013-02-22 06:46:00,
2013-02-21 22:52:00,41.4,31.6,31.09,NW,305,0.0,0.0,68,0.00,,,0.00,0,Wunderground v.1.15,2013-02-22 06:52:00,
2013-02-21 22:58:00,41.1,31.3,31.10,NW,305,0.0,0.0,68,0.00,,,0.00,0,Wunderground v.1.15,2013-02-22 06:58:00,
2013-02-21 23:04:00,40.9,31.5,31.09,NW,304,0.0,0.0,69,0.00,,,0.00,0,Wunderground v.1.15,2013-02-22 07:04:00,
2013-02-21 23:10:00,40.8,31.4,31.09,NW,305,0.0,0.0,69,0.00,,,0.00,0,Wunderground v.1.15,2013-02-22 07:10:00,
2013-02-21 23:16:00,40.6,31.2,31.09,NW,304,0.0,0.0,69,0.00,,,0.00,0,Wunderground v.1.15,2013-02-22 07:16:00,
2013-02-21 23:22:00,40.5,31.5,31.09,NW,304,0.0,0.0,70,0.00,,,0.00,0,Wunderground v.1.15,2013-02-22 07:22:00,
2013-02-21 23:28:00,40.4,31.4,31.09,NW,305,0.0,0.0,70,0.00,,,0.00,0,Wunderground v.1.15,2013-02-22 07:28:00,
2013-02-21 23:34:00,40.3,31.3,31.09,NW,305,0.0,0.0,70,0.00,,,0.00,0,Wunderground v.1.15,2013-02-22 07:34:00,
2013-02-21 23:40:00,40.3,31.3,31.09,NW,304,0.0,0.0,70,0.00,,,0.00,0,Wunderground v.1.15,2013-02-22 07:40:00,
2013-02-21 23:46:00,40.2,31.2,31.09,NW,305,0.0,0.0,70,0.00,,,0.00,0,Wunderground v.1.15,2013-02-22 07:46:00,
2013-02-21 23:52:00,40.1,31.1,31.09,NW,305,0.0,0.0,70,0.00,,,0.00,0,Wunderground v.1.15,2013-02-22 07:52:00,
2013-02-21 23:58:00,40.0,31.0,31.09,NW,304,0.0,0.0,70,0.00,,,0.00,0,Wunderground v.1.15,2013-02-22 07:58:00,